Weather in Lazo

Russia / Primorsky Krai     43°22′27″N   133°53′59″E
temp.,
°C
wind,
m/s
gust,
m/s
humid.,
%
clouds,
%
prec.,
mm/h
press.,
hPa
HPBL,
m
14 may, fri
fri1401:00+8wnw21845 0.0 101415
04:00+8wnw117681 0.0 101317
07:00+9nw22730 0.0 101550
10:00+19nw143131 0.0 10141717
13:00+23sw1223100 0.0 10132425
16:00+21s4429100 0.0 10121898
19:00+16s245390 0.0 1012143
22:00+10sw226798 0.0 101439
15 may, sat
sat1501:00+11sw237099 0.0 101375
04:00+9ssw2389100 0.0 101279
07:00+12sw2788100 0.0 1011418
10:00+17sw3770100 0.0 1010793
13:00+20sw485918 0.0 1007950
16:00+22sw51055100 0.0 10051283
19:00+19sw366998 0.0 1005428
22:00+13nnw3586100 0.1 1009391
16 may, sun
sun1601:00+10n2389100 0.1 1009190
04:00+9nnw2388100 0.2 1009128
07:00+9n1185100 0.1 101029
10:00+10n1281100 0.1 101099
13:00+9nnw2490100 0.5 1009371
16:00+8n1396100 2.4 1008302
19:00+8n0196100 1.1 100866
22:00+8nnw0194100 1.1 100714
17 may, mon
mon1701:00+7nnw1195100 0.0 100615
04:00+6nw2292100 0.0 100526
07:00+7nw22896 0.0 100660
10:00+17nnw24453 0.0 1005770
13:00+21nnw3527100 0.0 10042349
16:00+22n2426100 0.0 10032447
19:00+16sw2261100 0.0 100546
22:00+11w217299 0.0 100714
18 may, tue
tue1801:00+11w2170100 0.0 100818
04:00+10w2168100 0.0 100816
07:00+11wnw22660 0.0 100946
10:00+21wsw14360 0.0 1008650
13:00+25wsw34275 0.0 10062491
16:00+25wsw44295 0.0 10062390
19:00+19sw35510 0.0 1007179
22:00+12wsw22650 0.0 101034